Location: Unspecified
(51.0950°N, 12.9690°E)
Time: 08:20:25
(UTC+00:00)

PCSat - Pass Details

Date: 24 April 2024
Orbit: 783 x 792 km, 67.1° (Epoch: 27 May)

Event Time Altitude Azimuth Distance (km) Brightness Sun altitude
Rises 01:36:09 0° 323° (NW) 3,301 13.0 -18.1°
Reaches altitude 10° 01:38:37 10° 327° (NNW) 2,369 12.3 -17.9°
Maximum altitude 01:43:59 58° 47° (NE) 924 10.2 -17.3°
Drops below altitude 10° 01:49:19 10° 127° (SE) 2,357 12.1 -16.8°
Sets 01:51:46 0° 131° (SE) 3,283 12.8 -16.5°
